User: anonymous   Login
Location: ?????
(54.9266°N, 38.5527°E)
Time: 15:15:59
(UTC+00:00)
Language:

Cosmos 2297 - Orbit

View from above orbital plane
View from above orbital plane
View from above satellite
View from above satellite

Ground track
Ground track

The orbit data is extracted from the following two-line orbital elements,

1 23404U 94077A   24165.88843991  .00000353  00000-0  21159-3 0  9990
2 23404  71.0154 346.6741 0017036 234.0863 125.8679 14.13739548524900
Epoch (UTC): 13 June 2024 21:19:21
Eccentricity: 0.0017036
inclination: 71.0154°
perigee height: 834 km
apogee height: 859 km
right ascension of ascending node: 346.6741°
argument of perigee: 234.0863°
revolutions per day: 14.13739548
mean anomaly at epoch: 125.8679°
orbit number at epoch: 52490

The dashed part of the orbit path shows where the satellite is in the earth's shadow,  

DLR